Time,TemperatureF,DewpointF,PressureIn,WindDirection,WindDirectionDegrees,WindSpeedMPH,WindSpeedGustMPH,Humidity,HourlyPrecipIn,Conditions,Clouds,dailyrainin,SoftwareType,DateUTC
2013-03-09 00:00:00,37.9,31.4,30.24,West,270,0.0,0.0,77,-99.99,,,-99.99,WeatherSnoop3.0,2013-03-09 05:00:00,
2013-03-09 00:03:00,37.8,31.2,30.24,West,270,0.0,0.0,77,-99.99,,,-99.99,WeatherSnoop3.0,2013-03-09 05:03:00,
2013-03-09 00:08:00,37.8,31.2,30.24,West,270,0.7,6.0,77,-99.99,,,-99.99,WeatherSnoop3.0,2013-03-09 05:08:00,
2013-03-09 00:13:00,37.8,31.2,30.24,West,270,0.0,0.0,77,-99.99,,,-99.99,WeatherSnoop3.0,2013-03-09 05:13:00,
2013-03-09 00:17:00,37.8,31.2,30.24,West,270,0.0,0.0,77,-99.99,,,-99.99,WeatherSnoop3.0,2013-03-09 05:17:00,
2013-03-09 00:21:00,38.3,31.7,30.24,West,270,0.0,0.0,77,-99.99,,,-99.99,WeatherSnoop3.0,2013-03-09 05:21:00,
2013-03-09 00:26:00,38.3,31.7,30.24,West,270,0.0,0.0,77,-99.99,,,-99.99,WeatherSnoop3.0,2013-03-09 05:26:00,
2013-03-09 00:31:00,38.3,31.4,30.24,West,270,0.0,0.0,76,-99.99,,,-99.99,WeatherSnoop3.0,2013-03-09 05:31:00,
2013-03-09 00:36:00,38.5,31.6,30.24,West,270,0.0,0.0,76,-99.99,,,-99.99,WeatherSnoop3.0,2013-03-09 05:36:00,
2013-03-09 00:41:00,38.8,31.9,30.24,West,270,0.0,0.0,76,-99.99,,,-99.99,WeatherSnoop3.0,2013-03-09 05:41:00,
2013-03-09 00:46:00,38.8,31.9,30.24,West,270,0.0,0.0,76,-99.99,,,-99.99,WeatherSnoop3.0,2013-03-09 05:46:00,
2013-03-09 00:51:00,38.8,31.9,30.24,West,270,0.0,0.0,76,-99.99,,,-99.99,WeatherSnoop3.0,2013-03-09 05:51:00,
2013-03-09 00:56:00,39.4,31.8,30.24,North,0,0.0,0.0,74,-99.99,,,-99.99,WeatherSnoop3.0,2013-03-09 05:56:00,
2013-03-09 01:01:00,39.7,32.1,30.25,North,0,0.0,0.0,74,-99.99,,,-99.99,WeatherSnoop3.0,2013-03-09 06:01:00,
2013-03-09 01:06:00,39.7,32.1,30.25,North,0,0.0,0.0,74,-99.99,,,-99.99,WeatherSnoop3.0,2013-03-09 06:06:00,
2013-03-09 01:11:00,40.5,31.1,30.25,North,0,0.0,0.0,69,-99.99,,,-99.99,WeatherSnoop3.0,2013-03-09 06:11:00,
2013-03-09 01:16:00,40.6,30.9,30.25,North,0,0.0,0.0,68,-99.99,,,-99.99,WeatherSnoop3.0,2013-03-09 06:16:00,
2013-03-09 01:21:00,40.8,31.1,30.25,North,0,0.0,0.0,68,-99.99,,,-99.99,WeatherSnoop3.0,2013-03-09 06:21:00,
2013-03-09 01:26:00,41.2,30.7,30.25,North,0,0.0,0.0,66,-99.99,,,-99.99,WeatherSnoop3.0,2013-03-09 06:26:00,
2013-03-09 01:31:00,41.5,31.0,30.25,North,0,0.0,0.0,66,-99.99,,,-99.99,WeatherSnoop3.0,2013-03-09 06:31:00,
2013-03-09 01:36:00,42.1,30.8,30.25,North,0,0.0,0.0,64,-99.99,,,-99.99,WeatherSnoop3.0,2013-03-09 06:36:00,
2013-03-09 01:41:00,42.6,30.9,30.25,East,90,0.0,0.0,63,-99.99,,,-99.99,WeatherSnoop3.0,2013-03-09 06:41:00,
2013-03-09 01:46:00,43.0,30.9,30.25,North,0,0.0,0.0,62,-99.99,,,-99.99,WeatherSnoop3.0,2013-03-09 06:46:00,
2013-03-09 01:51:00,42.6,30.5,30.25,North,0,0.0,0.0,62,-99.99,,,-99.99,WeatherSnoop3.0,2013-03-09 06:51:00,
2013-03-09 01:56:00,42.8,29.9,30.25,North,0,0.0,1.6,60,-99.99,,,-99.99,WeatherSnoop3.0,2013-03-09 06:56:00,
2013-03-09 02:01:00,43.9,30.1,30.24,North,0,0.0,0.0,58,-99.99,,,-99.99,WeatherSnoop3.0,2013-03-09 07:01:00,
2013-03-09 02:06:00,43.7,29.5,30.24,North,0,0.0,0.0,57,-99.99,,,-99.99,WeatherSnoop3.0,2013-03-09 07:06:00,
2013-03-09 02:11:00,44.1,29.4,30.24,North,0,0.0,0.0,56,-99.99,,,-99.99,WeatherSnoop3.0,2013-03-09 07:11:00,
2013-03-09 02:16:00,43.9,29.2,30.24,North,0,0.0,0.0,56,-99.99,,,-99.99,WeatherSnoop3.0,2013-03-09 07:16:00,
2013-03-09 02:21:00,43.9,29.2,30.24,North,0,0.0,0.0,56,-99.99,,,-99.99,WeatherSnoop3.0,2013-03-09 07:21:00,
2013-03-09 02:26:00,44.1,28.9,30.24,North,0,1.6,3.1,55,-99.99,,,-99.99,WeatherSnoop3.0,2013-03-09 07:26:00,
2013-03-09 02:31:00,44.2,28.7,30.24,NE,45,0.0,0.0,54,-99.99,,,-99.99,WeatherSnoop3.0,2013-03-09 07:31:00,
2013-03-09 02:36:00,44.2,28.7,30.24,North,0,0.0,0.0,54,-99.99,,,-99.99,WeatherSnoop3.0,2013-03-09 07:36:00,
2013-03-09 02:41:00,43.7,28.2,30.24,North,0,0.0,0.0,54,-99.99,,,-99.99,WeatherSnoop3.0,2013-03-09 07:41:00,
2013-03-09 02:46:00,43.9,28.3,30.24,North,0,1.6,3.1,54,-99.99,,,-99.99,WeatherSnoop3.0,2013-03-09 07:46:00,
2013-03-09 02:51:00,43.7,28.2,30.23,North,0,0.0,0.7,54,-99.99,,,-99.99,WeatherSnoop3.0,2013-03-09 07:51:00,
2013-03-09 02:56:00,43.7,28.6,30.23,North,0,0.0,0.0,55,-99.99,,,-99.99,WeatherSnoop3.0,2013-03-09 07:56:00,
2013-03-09 03:01:00,43.3,28.3,30.24,North,0,0.0,0.7,55,-99.99,,,-99.99,WeatherSnoop3.0,2013-03-09 08:01:00,
2013-03-09 03:06:00,43.3,28.3,30.24,North,0,0.0,0.7,55,-99.99,,,-99.99,WeatherSnoop3.0,2013-03-09 08:06:00,
2013-03-09 03:11:00,43.9,28.3,30.24,NW,315,0.0,0.0,54,-99.99,,,-99.99,WeatherSnoop3.0,2013-03-09 08:11:00,
2013-03-09 03:16:00,44.1,28.5,30.24,North,0,0.7,2.2,54,-99.99,,,-99.99,WeatherSnoop3.0,2013-03-09 08:16:00,
2013-03-09 03:21:00,43.9,28.3,30.24,North,0,0.0,1.6,54,-99.99,,,-99.99,WeatherSnoop3.0,2013-03-09 08:21:00,
2013-03-09 03:26:00,43.5,28.0,30.24,North,0,0.0,1.6,54,-99.99,,,-99.99,WeatherSnoop3.0,2013-03-09 08:26:00,
2013-03-09 03:31:00,43.3,28.3,30.24,North,0,0.0,2.2,55,-99.99,,,-99.99,WeatherSnoop3.0,2013-03-09 08:31:00,
2013-03-09 03:36:00,43.2,28.1,30.25,North,0,0.0,1.6,55,-99.99,,,-99.99,WeatherSnoop3.0,2013-03-09 08:36:00,
2013-03-09 03:41:00,43.7,28.2,30.25,North,0,0.0,0.0,54,-99.99,,,-99.99,WeatherSnoop3.0,2013-03-09 08:41:00,
2013-03-09 03:46:00,43.2,28.1,30.25,North,0,0.0,0.0,55,-99.99,,,-99.99,WeatherSnoop3.0,2013-03-09 08:46:00,
2013-03-09 03:51:00,43.0,27.9,30.25,West,270,0.0,0.0,55,-99.99,,,-99.99,WeatherSnoop3.0,2013-03-09 08:51:00,
2013-03-09 03:56:00,43.3,28.3,30.25,North,0,0.0,1.6,55,-99.99,,,-99.99,WeatherSnoop3.0,2013-03-09 08:56:00,
2013-03-09 04:01:00,43.3,28.3,30.24,North,0,0.0,0.0,55,-99.99,,,-99.99,WeatherSnoop3.0,2013-03-09 09:01:00,
2013-03-09 04:06:00,42.6,28.5,30.24,West,270,0.0,0.0,57,-99.99,,,-99.99,WeatherSnoop3.0,2013-03-09 09:06:00,
2013-03-09 04:11:00,42.4,28.3,30.24,East,90,0.0,0.0,57,-99.99,,,-99.99,WeatherSnoop3.0,2013-03-09 09:11:00,
2013-03-09 04:16:00,42.1,28.4,30.25,North,0,1.6,3.8,58,-99.99,,,-99.99,WeatherSnoop3.0,2013-03-09 09:16:00,
2013-03-09 04:21:00,42.3,29.0,30.24,North,0,0.0,0.0,59,-99.99,,,-99.99,WeatherSnoop3.0,2013-03-09 09:21:00,
2013-03-09 04:26:00,41.9,28.6,30.24,North,0,0.0,0.7,59,-99.99,,,-99.99,WeatherSnoop3.0,2013-03-09 09:26:00,
2013-03-09 04:31:00,41.7,28.9,30.25,West,270,0.0,0.7,60,-99.99,,,-99.99,WeatherSnoop3.0,2013-03-09 09:31:00,
2013-03-09 04:36:00,41.4,28.5,30.25,West,270,0.0,0.0,60,-99.99,,,-99.99,WeatherSnoop3.0,2013-03-09 09:36:00,
2013-03-09 04:41:00,41.4,28.5,30.25,West,270,0.0,0.0,60,-99.99,,,-99.99,WeatherSnoop3.0,2013-03-09 09:41:00,
2013-03-09 04:46:00,41.2,28.8,30.25,North,0,0.0,0.0,61,-99.99,,,-99.99,WeatherSnoop3.0,2013-03-09 09:46:00,
2013-03-09 04:51:00,41.0,28.6,30.25,North,0,0.0,0.7,61,-99.99,,,-99.99,WeatherSnoop3.0,2013-03-09 09:51:00,
2013-03-09 04:56:00,40.8,28.8,30.25,West,270,0.0,0.0,62,-99.99,,,-99.99,WeatherSnoop3.0,2013-03-09 09:56:00,
2013-03-09 05:01:00,40.8,29.2,30.25,North,0,0.0,0.0,63,-99.99,,,-99.99,WeatherSnoop3.0,2013-03-09 10:01:00,
2013-03-09 05:06:00,40.8,29.2,30.25,North,0,0.0,0.0,63,-99.99,,,-99.99,WeatherSnoop3.0,2013-03-09 10:06:00,
2013-03-09 05:11:00,39.9,28.7,30.25,West,270,0.0,0.0,64,-99.99,,,-99.99,WeatherSnoop3.0,2013-03-09 10:11:00,
2013-03-09 05:16:00,39.6,28.4,30.25,West,270,0.0,0.0,64,-99.99,,,-99.99,WeatherSnoop3.0,2013-03-09 10:16:00,
2013-03-09 05:21:00,39.6,28.8,30.25,West,270,0.0,0.0,65,-99.99,,,-99.99,WeatherSnoop3.0,2013-03-09 10:21:00,
2013-03-09 05:26:00,39.0,28.6,30.26,NW,315,0.0,0.0,66,-99.99,,,-99.99,WeatherSnoop3.0,2013-03-09 10:26:00,
2013-03-09 05:31:00,39.0,29.0,30.26,West,270,0.0,0.0,67,-99.99,,,-99.99,WeatherSnoop3.0,2013-03-09 10:31:00,
2013-03-09 05:36:00,38.7,28.7,30.27,West,270,0.0,0.0,67,-99.99,,,-99.99,WeatherSnoop3.0,2013-03-09 10:36:00,
2013-03-09 05:41:00,38.3,28.3,30.27,West,270,0.0,0.0,67,-99.99,,,-99.99,WeatherSnoop3.0,2013-03-09 10:41:00,
2013-03-09 05:46:00,37.9,28.3,30.27,West,270,0.0,0.0,68,-99.99,,,-99.99,WeatherSnoop3.0,2013-03-09 10:46:00,
2013-03-09 05:51:00,37.9,28.7,30.27,West,270,0.0,0.0,69,-99.99,,,-99.99,WeatherSnoop3.0,2013-03-09 10:51:00,
2013-03-09 05:56:00,37.8,28.5,30.26,West,270,0.0,0.0,69,-99.99,,,-99.99,WeatherSnoop3.0,2013-03-09 10:56:00,
2013-03-09 06:01:00,37.8,28.5,30.26,West,270,0.0,0.0,69,-99.99,,,-99.99,WeatherSnoop3.0,2013-03-09 11:01:00,
2013-03-09 06:06:00,37.6,28.3,30.26,West,270,0.0,0.0,69,-99.99,,,-99.99,WeatherSnoop3.0,2013-03-09 11:06:00,
2013-03-09 06:11:00,37.9,29.0,30.26,West,270,0.0,0.0,70,-99.99,,,-99.99,WeatherSnoop3.0,2013-03-09 11:11:00,
2013-03-09 06:16:00,37.8,28.9,30.26,West,270,0.0,0.0,70,-99.99,,,-99.99,WeatherSnoop3.0,2013-03-09 11:16:00,
2013-03-09 06:21:00,37.6,28.7,30.26,West,270,0.0,0.0,70,-99.99,,,-99.99,WeatherSnoop3.0,2013-03-09 11:21:00,
2013-03-09 06:26:00,38.3,29.4,30.27,East,90,0.0,0.0,70,-99.99,,,-99.99,WeatherSnoop3.0,2013-03-09 11:26:00,
2013-03-09 06:31:00,38.7,29.4,30.27,East,90,0.0,0.0,69,-99.99,,,-99.99,WeatherSnoop3.0,2013-03-09 11:31:00,
2013-03-09 06:36:00,38.1,28.9,30.27,East,90,0.0,0.0,69,-99.99,,,-99.99,WeatherSnoop3.0,2013-03-09 11:36:00,
2013-03-09 06:41:00,37.8,28.5,30.26,West,270,0.0,0.0,69,-99.99,,,-99.99,WeatherSnoop3.0,2013-03-09 11:41:00,
2013-03-09 06:46:00,37.9,28.7,30.27,NW,315,0.0,0.0,69,-99.99,,,-99.99,WeatherSnoop3.0,2013-03-09 11:46:00,
2013-03-09 06:51:00,38.1,29.2,30.26,North,0,0.0,0.0,70,-99.99,,,-99.99,WeatherSnoop3.0,2013-03-09 11:51:00,
2013-03-09 06:56:00,38.3,29.4,30.27,South,180,0.0,0.0,70,-99.99,,,-99.99,WeatherSnoop3.0,2013-03-09 11:56:00,
2013-03-09 07:01:00,38.5,29.2,30.26,South,180,0.0,0.0,69,-99.99,,,-99.99,WeatherSnoop3.0,2013-03-09 12:01:00,
2013-03-09 07:06:00,38.5,29.2,30.27,South,180,0.0,0.0,69,-99.99,,,-99.99,WeatherSnoop3.0,2013-03-09 12:06:00,
2013-03-09 07:11:00,39.9,29.9,30.27,North,0,0.0,0.7,67,-99.99,,,-99.99,WeatherSnoop3.0,2013-03-09 12:11:00,
2013-03-09 07:16:00,40.1,30.0,30.27,West,270,0.7,1.6,67,-99.99,,,-99.99,WeatherSnoop3.0,2013-03-09 12:16:00,
2013-03-09 07:21:00,40.1,29.7,30.27,North,0,0.0,0.0,66,-99.99,,,-99.99,WeatherSnoop3.0,2013-03-09 12:21:00,
2013-03-09 07:26:00,40.6,30.2,30.27,North,0,0.0,0.7,66,-99.99,,,-99.99,WeatherSnoop3.0,2013-03-09 12:26:00,
2013-03-09 07:31:00,41.0,30.2,30.27,North,0,0.0,0.0,65,-99.99,,,-99.99,WeatherSnoop3.0,2013-03-09 12:31:00,
2013-03-09 07:36:00,41.7,30.5,30.28,South,180,0.7,1.6,64,-99.99,,,-99.99,WeatherSnoop3.0,2013-03-09 12:36:00,
2013-03-09 07:41:00,42.1,30.4,30.28,North,0,0.0,0.7,63,-99.99,,,-99.99,WeatherSnoop3.0,2013-03-09 12:41:00,
2013-03-09 07:46:00,42.3,30.6,30.28,South,180,0.0,0.7,63,-99.99,,,-99.99,WeatherSnoop3.0,2013-03-09 12:46:00,
2013-03-09 07:51:00,43.0,29.6,30.29,North,0,0.7,2.2,59,-99.99,,,-99.99,WeatherSnoop3.0,2013-03-09 12:51:00,
2013-03-09 07:56:00,43.3,30.0,30.29,South,180,0.7,2.2,59,-99.99,,,-99.99,WeatherSnoop3.0,2013-03-09 12:56:00,
2013-03-09 08:01:00,43.5,30.2,30.30,SW,225,0.0,1.6,59,-99.99,,,-99.99,WeatherSnoop3.0,2013-03-09 13:01:00,
2013-03-09 08:06:00,43.7,30.3,30.30,NW,315,0.7,1.6,59,-99.99,,,-99.99,WeatherSnoop3.0,2013-03-09 13:06:00,
2013-03-09 08:11:00,44.4,30.2,30.30,East,90,3.8,6.0,57,-99.99,,,-99.99,WeatherSnoop3.0,2013-03-09 13:11:00,
2013-03-09 08:16:00,45.0,29.8,30.30,North,0,0.0,0.0,55,-99.99,,,-99.99,WeatherSnoop3.0,2013-03-09 13:16:00,
2013-03-09 08:21:00,45.3,29.7,30.30,NW,315,0.0,0.0,54,-99.99,,,-99.99,WeatherSnoop3.0,2013-03-09 13:21:00,
2013-03-09 08:26:00,45.7,30.0,30.30,North,0,0.0,0.0,54,-99.99,,,-99.99,WeatherSnoop3.0,2013-03-09 13:26:00,
2013-03-09 08:31:00,46.6,30.8,30.30,North,0,1.6,3.1,54,-99.99,,,-99.99,WeatherSnoop3.0,2013-03-09 13:31:00,
2013-03-09 08:36:00,46.6,30.4,30.30,North,0,1.6,3.1,53,-99.99,,,-99.99,WeatherSnoop3.0,2013-03-09 13:36:00,
2013-03-09 08:41:00,46.8,30.1,30.30,North,0,1.6,3.1,52,-99.99,,,-99.99,WeatherSnoop3.0,2013-03-09 13:41:00,
2013-03-09 08:46:00,46.9,30.7,30.30,West,270,1.6,3.1,53,-99.99,,,-99.99,WeatherSnoop3.0,2013-03-09 13:46:00,
2013-03-09 08:51:00,47.5,31.7,30.30,NE,45,1.6,3.8,54,-99.99,,,-99.99,WeatherSnoop3.0,2013-03-09 13:51:00,
2013-03-09 08:56:00,47.8,31.5,30.30,NW,315,0.0,0.7,53,-99.99,,,-99.99,WeatherSnoop3.0,2013-03-09 13:56:00,
2013-03-09 09:01:00,48.2,31.9,30.30,South,180,2.2,3.1,53,-99.99,,,-99.99,WeatherSnoop3.0,2013-03-09 14:01:00,
2013-03-09 09:06:00,48.2,31.9,30.30,South,180,2.2,3.1,53,-99.99,,,-99.99,WeatherSnoop3.0,2013-03-09 14:06:00,
2013-03-09 09:11:00,49.1,32.2,30.30,South,180,0.7,1.6,52,-99.99,,,-99.99,WeatherSnoop3.0,2013-03-09 14:11:00,
2013-03-09 09:16:00,49.5,31.6,30.30,North,0,0.0,0.0,50,-99.99,,,-99.99,WeatherSnoop3.0,2013-03-09 14:16:00,
2013-03-09 09:21:00,50.0,31.6,30.30,South,180,1.6,3.8,49,-99.99,,,-99.99,WeatherSnoop3.0,2013-03-09 14:21:00,
2013-03-09 09:26:00,50.5,32.1,30.30,NW,315,0.7,1.6,49,-99.99,,,-99.99,WeatherSnoop3.0,2013-03-09 14:26:00,
2013-03-09 09:31:00,51.3,32.2,30.30,NE,45,0.7,1.6,48,-99.99,,,-99.99,WeatherSnoop3.0,2013-03-09 14:31:00,
2013-03-09 09:36:00,51.4,31.9,30.30,South,180,0.7,2.2,47,-99.99,,,-99.99,WeatherSnoop3.0,2013-03-09 14:36:00,
2013-03-09 09:41:00,52.0,31.9,30.30,East,90,1.6,3.1,46,-99.99,,,-99.99,WeatherSnoop3.0,2013-03-09 14:41:00,
2013-03-09 09:46:00,52.5,32.3,30.30,East,90,0.0,0.7,46,-99.99,,,-99.99,WeatherSnoop3.0,2013-03-09 14:46:00,
2013-03-09 09:51:00,53.1,32.3,30.31,South,180,0.0,1.6,45,-99.99,,,-99.99,WeatherSnoop3.0,2013-03-09 14:51:00,
2013-03-09 09:56:00,54.3,32.9,30.31,North,0,1.6,3.8,44,-99.99,,,-99.99,WeatherSnoop3.0,2013-03-09 14:56:00,
2013-03-09 10:01:00,55.2,33.1,30.31,North,0,0.7,1.6,43,-99.99,,,-99.99,WeatherSnoop3.0,2013-03-09 15:01:00,
2013-03-09 10:06:00,56.7,33.8,30.30,North,0,0.0,0.7,42,-99.99,,,-99.99,WeatherSnoop3.0,2013-03-09 15:06:00,
2013-03-09 10:11:00,58.3,33.4,30.31,North,0,1.6,3.1,39,-99.99,,,-99.99,WeatherSnoop3.0,2013-03-09 15:11:00,
2013-03-09 10:16:00,58.1,32.6,30.31,South,180,2.2,3.8,38,-99.99,,,-99.99,WeatherSnoop3.0,2013-03-09 15:16:00,
2013-03-09 10:21:00,57.2,31.8,30.31,South,180,0.7,1.6,38,-99.99,,,-99.99,WeatherSnoop3.0,2013-03-09 15:21:00,
2013-03-09 10:26:00,60.4,34.0,30.32,NE,45,1.6,3.1,37,-99.99,,,-99.99,WeatherSnoop3.0,2013-03-09 15:26:00,
2013-03-09 10:31:00,59.9,32.2,30.31,NW,315,0.0,0.7,35,-99.99,,,-99.99,WeatherSnoop3.0,2013-03-09 15:31:00,
2013-03-09 10:36:00,60.1,32.3,30.32,North,0,1.6,3.1,35,-99.99,,,-99.99,WeatherSnoop3.0,2013-03-09 15:36:00,
2013-03-09 10:41:00,61.9,33.2,30.32,North,0,0.7,2.2,34,-99.99,,,-99.99,WeatherSnoop3.0,2013-03-09 15:41:00,
2013-03-09 10:46:00,63.9,34.2,30.31,North,0,0.7,1.6,33,-99.99,,,-99.99,WeatherSnoop3.0,2013-03-09 15:46:00,
2013-03-09 10:51:00,61.2,30.3,30.32,North,0,0.0,0.0,31,-99.99,,,-99.99,WeatherSnoop3.0,2013-03-09 15:51:00,
2013-03-09 10:56:00,63.0,32.6,30.32,North,0,0.7,2.2,32,-99.99,,,-99.99,WeatherSnoop3.0,2013-03-09 15:56:00,
2013-03-09 11:01:00,62.4,32.2,30.32,NE,45,0.0,0.0,32,-99.99,,,-99.99,WeatherSnoop3.0,2013-03-09 16:01:00,
2013-03-09 11:06:00,62.4,32.2,30.32,NE,45,0.0,0.0,32,-99.99,,,-99.99,WeatherSnoop3.0,2013-03-09 16:06:00,
2013-03-09 11:11:00,62.8,32.5,30.32,NE,45,0.7,1.6,32,-99.99,,,-99.99,WeatherSnoop3.0,2013-03-09 16:11:00,
2013-03-09 11:16:00,64.8,35.0,30.32,NW,315,0.7,2.2,33,-99.99,,,-99.99,WeatherSnoop3.0,2013-03-09 16:16:00,
2013-03-09 11:21:00,64.4,33.9,30.32,SW,225,0.0,0.7,32,-99.99,,,-99.99,WeatherSnoop3.0,2013-03-09 16:21:00,
2013-03-09 11:26:00,63.5,32.3,30.32,South,180,0.7,2.2,31,-99.99,,,-99.99,WeatherSnoop3.0,2013-03-09 16:26:00,
2013-03-09 11:31:00,63.9,32.6,30.32,South,180,1.6,2.2,31,-99.99,,,-99.99,WeatherSnoop3.0,2013-03-09 16:31:00,
2013-03-09 11:36:00,63.5,32.3,30.32,East,90,1.6,3.1,31,-99.99,,,-99.99,WeatherSnoop3.0,2013-03-09 16:36:00,
2013-03-09 11:41:00,64.8,34.2,30.32,North,0,0.7,2.2,32,-99.99,,,-99.99,WeatherSnoop3.0,2013-03-09 16:41:00,
2013-03-09 11:46:00,65.8,35.2,30.31,East,90,0.7,2.2,32,-99.99,,,-99.99,WeatherSnoop3.0,2013-03-09 16:46:00,
2013-03-09 11:51:00,65.8,35.2,30.31,SW,225,0.7,1.6,32,-99.99,,,-99.99,WeatherSnoop3.0,2013-03-09 16:51:00,
2013-03-09 11:56:00,69.1,34.6,30.31,SW,225,0.0,2.2,28,-99.99,,,-99.99,WeatherSnoop3.0,2013-03-09 16:56:00,
2013-03-09 12:01:00,68.4,32.1,30.31,East,90,0.7,2.2,26,-99.99,,,-99.99,WeatherSnoop3.0,2013-03-09 17:01:00,
2013-03-09 12:06:00,64.6,34.1,30.31,SW,225,1.6,3.1,32,-99.99,,,-99.99,WeatherSnoop3.0,2013-03-09 17:06:00,
2013-03-09 12:11:00,61.3,35.5,30.31,SW,225,1.6,3.1,38,-99.99,,,-99.99,WeatherSnoop3.0,2013-03-09 17:11:00,
2013-03-09 12:16:00,62.6,39.2,30.30,South,180,3.1,4.5,42,-99.99,,,-99.99,WeatherSnoop3.0,2013-03-09 17:16:00,
2013-03-09 12:21:00,61.5,38.8,30.30,South,180,2.2,3.8,43,-99.99,,,-99.99,WeatherSnoop3.0,2013-03-09 17:21:00,
2013-03-09 12:26:00,61.2,39.1,30.30,West,270,3.1,4.5,44,-99.99,,,-99.99,WeatherSnoop3.0,2013-03-09 17:26:00,
2013-03-09 12:31:00,59.7,38.3,30.30,South,180,2.2,3.8,45,-99.99,,,-99.99,WeatherSnoop3.0,2013-03-09 17:31:00,
2013-03-09 12:36:00,60.4,39.6,30.30,West,270,3.1,4.5,46,-99.99,,,-99.99,WeatherSnoop3.0,2013-03-09 17:36:00,
2013-03-09 12:41:00,59.0,38.3,30.30,SW,225,1.6,3.8,46,-99.99,,,-99.99,WeatherSnoop3.0,2013-03-09 17:41:00,
2013-03-09 12:46:00,59.9,39.1,30.30,South,180,2.2,3.1,46,-99.99,,,-99.99,WeatherSnoop3.0,2013-03-09 17:46:00,
2013-03-09 12:51:00,61.3,39.8,30.30,West,270,3.1,4.5,45,-99.99,,,-99.99,WeatherSnoop3.0,2013-03-09 17:51:00,
2013-03-09 12:56:00,60.4,39.6,30.30,West,270,2.2,3.8,46,-99.99,,,-99.99,WeatherSnoop3.0,2013-03-09 17:56:00,
2013-03-09 13:01:00,60.8,39.9,30.30,SW,225,3.1,3.8,46,-99.99,,,-99.99,WeatherSnoop3.0,2013-03-09 18:01:00,
2013-03-09 13:06:00,60.8,39.9,30.30,SW,225,3.1,3.8,46,-99.99,,,-99.99,WeatherSnoop3.0,2013-03-09 18:06:00,
2013-03-09 13:11:00,60.4,39.6,30.29,South,180,2.2,3.8,46,-99.99,,,-99.99,WeatherSnoop3.0,2013-03-09 18:11:00,
2013-03-09 13:16:00,60.6,39.7,30.29,East,90,1.6,3.1,46,-99.99,,,-99.99,WeatherSnoop3.0,2013-03-09 18:16:00,
2013-03-09 13:21:00,61.9,40.3,30.29,South,180,1.6,3.1,45,-99.99,,,-99.99,WeatherSnoop3.0,2013-03-09 18:21:00,
2013-03-09 13:26:00,61.5,38.2,30.28,South,180,2.2,3.1,42,-99.99,,,-99.99,WeatherSnoop3.0,2013-03-09 18:26:00,
2013-03-09 13:31:00,61.3,40.4,30.29,South,180,3.8,6.0,46,-99.99,,,-99.99,WeatherSnoop3.0,2013-03-09 18:31:00,
2013-03-09 13:36:00,59.7,40.0,30.29,South,180,3.1,4.5,48,-99.99,,,-99.99,WeatherSnoop3.0,2013-03-09 18:36:00,
2013-03-09 13:41:00,59.7,40.0,30.28,SE,135,2.2,3.8,48,-99.99,,,-99.99,WeatherSnoop3.0,2013-03-09 18:41:00,
2013-03-09 13:46:00,60.1,40.9,30.28,South,180,1.6,2.2,49,-99.99,,,-99.99,WeatherSnoop3.0,2013-03-09 18:46:00,
2013-03-09 13:51:00,61.3,40.9,30.28,SW,225,2.2,3.8,47,-99.99,,,-99.99,WeatherSnoop3.0,2013-03-09 18:51:00,
2013-03-09 13:56:00,59.0,38.3,30.27,South,180,1.6,3.1,46,-99.99,,,-99.99,WeatherSnoop3.0,2013-03-09 18:56:00,
2013-03-09 14:01:00,60.3,40.5,30.27,South,180,2.2,3.1,48,-99.99,,,-99.99,WeatherSnoop3.0,2013-03-09 19:01:00,
2013-03-09 14:06:00,59.4,39.1,30.27,South,180,1.6,3.1,47,-99.99,,,-99.99,WeatherSnoop3.0,2013-03-09 19:06:00,
2013-03-09 14:11:00,63.3,41.0,30.27,South,180,2.2,3.1,44,-99.99,,,-99.99,WeatherSnoop3.0,2013-03-09 19:11:00,
2013-03-09 14:16:00,62.4,39.6,30.26,East,90,1.6,3.1,43,-99.99,,,-99.99,WeatherSnoop3.0,2013-03-09 19:16:00,
2013-03-09 14:21:00,60.4,38.4,30.26,SW,225,2.2,3.8,44,-99.99,,,-99.99,WeatherSnoop3.0,2013-03-09 19:21:00,
2013-03-09 14:26:00,62.2,40.6,30.27,South,180,1.6,2.2,45,-99.99,,,-99.99,WeatherSnoop3.0,2013-03-09 19:26:00,
2013-03-09 14:31:00,62.6,37.9,30.26,South,180,0.7,2.2,40,-99.99,,,-99.99,WeatherSnoop3.0,2013-03-09 19:31:00,
2013-03-09 14:36:00,61.9,38.5,30.26,South,180,1.6,3.1,42,-99.99,,,-99.99,WeatherSnoop3.0,2013-03-09 19:36:00,
2013-03-09 14:41:00,61.0,38.3,30.26,South,180,1.6,2.2,43,-99.99,,,-99.99,WeatherSnoop3.0,2013-03-09 19:41:00,
2013-03-09 14:46:00,61.2,39.7,30.26,SW,225,3.8,5.4,45,-99.99,,,-99.99,WeatherSnoop3.0,2013-03-09 19:46:00,
2013-03-09 14:51:00,59.5,39.3,30.25,South,180,3.1,3.8,47,-99.99,,,-99.99,WeatherSnoop3.0,2013-03-09 19:51:00,
2013-03-09 14:56:00,60.4,40.7,30.25,South,180,2.2,3.8,48,-99.99,,,-99.99,WeatherSnoop3.0,2013-03-09 19:56:00,
2013-03-09 15:01:00,62.1,40.5,30.25,South,180,2.2,3.8,45,-99.99,,,-99.99,WeatherSnoop3.0,2013-03-09 20:01:00,
2013-03-09 15:06:00,62.1,40.5,30.25,South,180,2.2,3.8,45,-99.99,,,-99.99,WeatherSnoop3.0,2013-03-09 20:06:00,
2013-03-09 15:11:00,62.6,40.4,30.26,SW,225,0.0,0.0,44,-99.99,,,-99.99,WeatherSnoop3.0,2013-03-09 20:11:00,
2013-03-09 15:16:00,61.3,39.2,30.25,NW,315,0.7,2.2,44,-99.99,,,-99.99,WeatherSnoop3.0,2013-03-09 20:16:00,
2013-03-09 15:21:00,60.8,38.8,30.25,West,270,2.2,3.1,44,-99.99,,,-99.99,WeatherSnoop3.0,2013-03-09 20:21:00,
2013-03-09 15:26:00,61.0,39.5,30.25,South,180,0.7,2.2,45,-99.99,,,-99.99,WeatherSnoop3.0,2013-03-09 20:26:00,
2013-03-09 15:31:00,60.4,41.2,30.25,South,180,1.6,3.1,49,-99.99,,,-99.99,WeatherSnoop3.0,2013-03-09 20:31:00,
2013-03-09 15:36:00,61.3,40.9,30.25,South,180,0.0,0.0,47,-99.99,,,-99.99,WeatherSnoop3.0,2013-03-09 20:36:00,
2013-03-09 15:41:00,60.1,40.3,30.25,South,180,0.0,1.6,48,-99.99,,,-99.99,WeatherSnoop3.0,2013-03-09 20:41:00,
2013-03-09 15:46:00,59.9,40.2,30.25,South,180,0.0,1.6,48,-99.99,,,-99.99,WeatherSnoop3.0,2013-03-09 20:46:00,
2013-03-09 15:51:00,60.1,40.9,30.24,South,180,0.0,1.6,49,-99.99,,,-99.99,WeatherSnoop3.0,2013-03-09 20:51:00,
2013-03-09 15:56:00,61.0,41.2,30.24,South,180,1.6,3.1,48,-99.99,,,-99.99,WeatherSnoop3.0,2013-03-09 20:56:00,
2013-03-09 16:01:00,59.5,39.8,30.24,South,180,2.2,3.8,48,-99.99,,,-99.99,WeatherSnoop3.0,2013-03-09 21:01:00,
2013-03-09 16:06:00,59.0,40.4,30.25,South,180,0.0,0.7,50,-99.99,,,-99.99,WeatherSnoop3.0,2013-03-09 21:06:00,
2013-03-09 16:11:00,59.0,39.9,30.25,South,180,0.7,2.2,49,-99.99,,,-99.99,WeatherSnoop3.0,2013-03-09 21:11:00,
2013-03-09 16:16:00,59.0,40.4,30.25,West,270,0.0,0.7,50,-99.99,,,-99.99,WeatherSnoop3.0,2013-03-09 21:16:00,
2013-03-09 16:21:00,59.0,41.4,30.24,West,270,3.1,4.5,52,-99.99,,,-99.99,WeatherSnoop3.0,2013-03-09 21:21:00,
2013-03-09 16:26:00,57.2,41.2,30.24,West,270,3.1,4.5,55,-99.99,,,-99.99,WeatherSnoop3.0,2013-03-09 21:26:00,
2013-03-09 16:31:00,57.2,41.6,30.24,South,180,1.6,3.1,56,-99.99,,,-99.99,WeatherSnoop3.0,2013-03-09 21:31:00,
2013-03-09 16:36:00,55.9,41.4,30.25,South,180,1.6,3.1,58,-99.99,,,-99.99,WeatherSnoop3.0,2013-03-09 21:36:00,
2013-03-09 16:41:00,55.6,41.0,30.25,South,180,2.2,5.4,58,-99.99,,,-99.99,WeatherSnoop3.0,2013-03-09 21:41:00,
2013-03-09 16:46:00,55.6,41.5,30.25,West,270,1.6,2.2,59,-99.99,,,-99.99,WeatherSnoop3.0,2013-03-09 21:46:00,
2013-03-09 16:51:00,55.2,41.6,30.25,South,180,0.0,1.6,60,-99.99,,,-99.99,WeatherSnoop3.0,2013-03-09 21:51:00,
2013-03-09 16:56:00,55.0,41.0,30.25,South,180,1.6,2.2,59,-99.99,,,-99.99,WeatherSnoop3.0,2013-03-09 21:56:00,
2013-03-09 17:01:00,54.9,40.8,30.24,South,180,0.7,2.2,59,-99.99,,,-99.99,WeatherSnoop3.0,2013-03-09 22:01:00,
2013-03-09 17:06:00,54.9,40.8,30.25,South,180,0.7,2.2,59,-99.99,,,-99.99,WeatherSnoop3.0,2013-03-09 22:06:00,
2013-03-09 17:11:00,54.3,41.2,30.25,South,180,1.6,2.2,61,-99.99,,,-99.99,WeatherSnoop3.0,2013-03-09 22:11:00,
2013-03-09 17:16:00,54.1,41.4,30.25,South,180,0.7,2.2,62,-99.99,,,-99.99,WeatherSnoop3.0,2013-03-09 22:16:00,
2013-03-09 17:21:00,54.0,41.7,30.25,South,180,0.0,0.0,63,-99.99,,,-99.99,WeatherSnoop3.0,2013-03-09 22:21:00,
2013-03-09 17:26:00,53.8,41.5,30.25,South,180,0.7,2.2,63,-99.99,,,-99.99,WeatherSnoop3.0,2013-03-09 22:26:00,
2013-03-09 17:32:00,53.6,42.1,30.26,South,180,0.7,1.6,65,-99.99,,,-99.99,WeatherSnoop3.0,2013-03-09 22:32:00,
2013-03-09 17:37:00,53.4,42.3,30.26,SW,225,0.0,1.6,66,-99.99,,,-99.99,WeatherSnoop3.0,2013-03-09 22:37:00,
2013-03-09 17:42:00,53.4,42.3,30.26,South,180,0.0,0.7,66,-99.99,,,-99.99,WeatherSnoop3.0,2013-03-09 22:42:00,
2013-03-09 17:47:00,53.1,42.0,30.26,South,180,0.7,1.6,66,-99.99,,,-99.99,WeatherSnoop3.0,2013-03-09 22:47:00,
2013-03-09 17:52:00,53.1,42.4,30.26,South,180,1.6,3.1,67,-99.99,,,-99.99,WeatherSnoop3.0,2013-03-09 22:52:00,
2013-03-09 17:57:00,52.9,42.2,30.26,South,180,0.7,1.6,67,-99.99,,,-99.99,WeatherSnoop3.0,2013-03-09 22:57:00,
2013-03-09 18:02:00,52.7,42.1,30.26,SW,225,0.0,0.0,67,-99.99,,,-99.99,WeatherSnoop3.0,2013-03-09 23:02:00,
2013-03-09 18:07:00,52.5,41.9,30.26,South,180,0.0,0.0,67,-99.99,,,-99.99,WeatherSnoop3.0,2013-03-09 23:07:00,
2013-03-09 18:12:00,52.3,41.7,30.26,East,90,0.0,0.0,67,-99.99,,,-99.99,WeatherSnoop3.0,2013-03-09 23:12:00,
2013-03-09 18:17:00,52.0,41.8,30.26,South,180,0.0,0.0,68,-99.99,,,-99.99,WeatherSnoop3.0,2013-03-09 23:17:00,
2013-03-09 18:22:00,51.6,42.2,30.26,South,180,0.0,0.0,70,-99.99,,,-99.99,WeatherSnoop3.0,2013-03-09 23:22:00,
2013-03-09 18:27:00,51.3,42.5,30.26,East,90,0.0,0.0,72,-99.99,,,-99.99,WeatherSnoop3.0,2013-03-09 23:27:00,
2013-03-09 18:32:00,50.9,42.6,30.26,East,90,0.0,0.0,73,-99.99,,,-99.99,WeatherSnoop3.0,2013-03-09 23:32:00,
2013-03-09 18:37:00,50.5,42.2,30.26,East,90,0.0,0.0,73,-99.99,,,-99.99,WeatherSnoop3.0,2013-03-09 23:37:00,
2013-03-09 18:42:00,50.4,42.4,30.27,East,90,0.0,0.0,74,-99.99,,,-99.99,WeatherSnoop3.0,2013-03-09 23:42:00,
2013-03-09 18:47:00,50.2,42.2,30.27,East,90,0.0,0.0,74,-99.99,,,-99.99,WeatherSnoop3.0,2013-03-09 23:47:00,
2013-03-09 18:52:00,49.6,42.0,30.27,East,90,0.0,0.0,75,-99.99,,,-99.99,WeatherSnoop3.0,2013-03-09 23:52:00,
2013-03-09 18:57:00,49.8,42.6,30.27,East,90,0.0,0.0,76,-99.99,,,-99.99,WeatherSnoop3.0,2013-03-09 23:57:00,
2013-03-09 19:02:00,49.5,42.2,30.27,East,90,0.0,0.0,76,-99.99,,,-99.99,WeatherSnoop3.0,2013-03-10 00:02:00,
2013-03-09 19:07:00,49.5,42.2,30.27,East,90,0.0,0.0,76,-99.99,,,-99.99,WeatherSnoop3.0,2013-03-10 00:07:00,
2013-03-09 19:12:00,48.7,42.2,30.27,East,90,0.0,0.0,78,-99.99,,,-99.99,WeatherSnoop3.0,2013-03-10 00:12:00,
2013-03-09 19:17:00,48.2,41.7,30.27,East,90,0.0,0.0,78,-99.99,,,-99.99,WeatherSnoop3.0,2013-03-10 00:17:00,
2013-03-09 19:22:00,47.8,42.0,30.27,East,90,0.0,0.0,80,-99.99,,,-99.99,WeatherSnoop3.0,2013-03-10 00:22:00,
2013-03-09 19:27:00,47.7,42.4,30.27,East,90,0.0,0.0,82,-99.99,,,-99.99,WeatherSnoop3.0,2013-03-10 00:27:00,
2013-03-09 19:32:00,47.1,41.9,30.27,East,90,0.0,0.0,82,-99.99,,,-99.99,WeatherSnoop3.0,2013-03-10 00:32:00,
2013-03-09 19:37:00,46.9,42.1,30.27,East,90,0.0,0.0,83,-99.99,,,-99.99,WeatherSnoop3.0,2013-03-10 00:37:00,
2013-03-09 19:42:00,46.6,42.0,30.27,East,90,0.0,0.0,84,-99.99,,,-99.99,WeatherSnoop3.0,2013-03-10 00:42:00,
2013-03-09 19:47:00,46.2,41.7,30.27,East,90,0.0,0.0,84,-99.99,,,-99.99,WeatherSnoop3.0,2013-03-10 00:47:00,
2013-03-09 19:52:00,46.0,41.5,30.28,East,90,0.0,0.0,84,-99.99,,,-99.99,WeatherSnoop3.0,2013-03-10 00:52:00,
2013-03-09 19:57:00,45.9,41.3,30.28,East,90,0.0,0.0,84,-99.99,,,-99.99,WeatherSnoop3.0,2013-03-10 00:57:00,
2013-03-09 20:02:00,45.9,41.6,30.27,East,90,0.0,0.0,85,-99.99,,,-99.99,WeatherSnoop3.0,2013-03-10 01:02:00,
2013-03-09 20:07:00,46.0,42.1,30.28,East,90,0.0,0.0,86,-99.99,,,-99.99,WeatherSnoop3.0,2013-03-10 01:07:00,
2013-03-09 20:12:00,45.7,42.0,30.27,East,90,0.0,0.0,87,-99.99,,,-99.99,WeatherSnoop3.0,2013-03-10 01:12:00,
2013-03-09 20:17:00,45.5,41.9,30.27,East,90,0.0,0.0,87,-99.99,,,-99.99,WeatherSnoop3.0,2013-03-10 01:17:00,
2013-03-09 20:22:00,45.5,42.2,30.27,East,90,0.0,0.0,88,-99.99,,,-99.99,WeatherSnoop3.0,2013-03-10 01:22:00,
2013-03-09 20:27:00,45.3,42.0,30.27,East,90,0.0,0.0,88,-99.99,,,-99.99,WeatherSnoop3.0,2013-03-10 01:27:00,
2013-03-09 20:32:00,45.0,41.6,30.28,East,90,0.0,0.0,88,-99.99,,,-99.99,WeatherSnoop3.0,2013-03-10 01:32:00,
2013-03-09 20:37:00,45.0,41.9,30.28,East,90,0.0,0.0,89,-99.99,,,-99.99,WeatherSnoop3.0,2013-03-10 01:37:00,
2013-03-09 20:42:00,44.8,41.7,30.28,East,90,0.0,0.0,89,-99.99,,,-99.99,WeatherSnoop3.0,2013-03-10 01:42:00,
2013-03-09 20:47:00,44.8,42.0,30.28,East,90,0.0,0.0,90,-99.99,,,-99.99,WeatherSnoop3.0,2013-03-10 01:47:00,
2013-03-09 20:52:00,44.4,42.0,30.29,East,90,0.0,0.0,91,-99.99,,,-99.99,WeatherSnoop3.0,2013-03-10 01:52:00,
2013-03-09 20:57:00,44.4,42.0,30.29,East,90,0.0,0.0,91,-99.99,,,-99.99,WeatherSnoop3.0,2013-03-10 01:57:00,
2013-03-09 21:02:00,44.2,42.1,30.28,East,90,0.0,0.0,92,-99.99,,,-99.99,WeatherSnoop3.0,2013-03-10 02:02:00,
2013-03-09 21:07:00,44.2,42.1,30.28,East,90,0.0,0.0,92,-99.99,,,-99.99,WeatherSnoop3.0,2013-03-10 02:07:00,
2013-03-09 21:12:00,44.1,41.9,30.28,East,90,0.0,0.0,92,-99.99,,,-99.99,WeatherSnoop3.0,2013-03-10 02:12:00,
2013-03-09 21:17:00,43.9,41.7,30.28,East,90,0.0,0.0,92,-99.99,,,-99.99,WeatherSnoop3.0,2013-03-10 02:17:00,
2013-03-09 21:22:00,43.5,41.4,30.28,East,90,0.0,0.0,92,-99.99,,,-99.99,WeatherSnoop3.0,2013-03-10 02:22:00,
2013-03-09 21:27:00,43.3,41.2,30.27,East,90,0.0,0.0,92,-99.99,,,-99.99,WeatherSnoop3.0,2013-03-10 02:27:00,
2013-03-09 21:32:00,43.2,41.3,30.28,East,90,0.0,0.0,93,-99.99,,,-99.99,WeatherSnoop3.0,2013-03-10 02:32:00,
2013-03-09 21:37:00,43.2,41.3,30.28,East,90,0.0,0.0,93,-99.99,,,-99.99,WeatherSnoop3.0,2013-03-10 02:37:00,
2013-03-09 21:42:00,43.2,41.3,30.28,East,90,0.0,0.0,93,-99.99,,,-99.99,WeatherSnoop3.0,2013-03-10 02:42:00,
2013-03-09 21:47:00,42.8,40.9,30.28,East,90,0.0,0.0,93,-99.99,,,-99.99,WeatherSnoop3.0,2013-03-10 02:47:00,
2013-03-09 21:52:00,43.0,41.1,30.28,East,90,0.0,0.0,93,-99.99,,,-99.99,WeatherSnoop3.0,2013-03-10 02:52:00,
2013-03-09 21:57:00,42.8,41.2,30.28,East,90,0.0,0.0,94,-99.99,,,-99.99,WeatherSnoop3.0,2013-03-10 02:57:00,
2013-03-09 22:02:00,43.2,41.6,30.28,East,90,0.0,0.0,94,-99.99,,,-99.99,WeatherSnoop3.0,2013-03-10 03:02:00,
2013-03-09 22:07:00,42.8,41.5,30.28,East,90,0.0,0.0,95,-99.99,,,-99.99,WeatherSnoop3.0,2013-03-10 03:07:00,
2013-03-09 22:12:00,42.6,41.6,30.28,East,90,0.0,0.0,96,-99.99,,,-99.99,WeatherSnoop3.0,2013-03-10 03:12:00,
2013-03-09 22:17:00,42.8,41.5,30.28,East,90,0.0,0.0,95,-99.99,,,-99.99,WeatherSnoop3.0,2013-03-10 03:17:00,
2013-03-09 22:22:00,42.6,41.6,30.28,East,90,0.0,0.0,96,-99.99,,,-99.99,WeatherSnoop3.0,2013-03-10 03:22:00,
2013-03-09 22:27:00,42.4,41.4,30.28,East,90,0.0,0.0,96,-99.99,,,-99.99,WeatherSnoop3.0,2013-03-10 03:27:00,
2013-03-09 22:32:00,42.3,41.2,30.28,East,90,0.0,0.0,96,-99.99,,,-99.99,WeatherSnoop3.0,2013-03-10 03:32:00,
2013-03-09 22:37:00,42.3,41.5,30.28,East,90,0.0,0.0,97,-99.99,,,-99.99,WeatherSnoop3.0,2013-03-10 03:37:00,
2013-03-09 22:42:00,42.1,41.3,30.28,East,90,0.0,0.0,97,-99.99,,,-99.99,WeatherSnoop3.0,2013-03-10 03:42:00,
2013-03-09 22:47:00,42.3,41.5,30.28,East,90,0.0,0.0,97,-99.99,,,-99.99,WeatherSnoop3.0,2013-03-10 03:47:00,
2013-03-09 22:52:00,41.9,41.1,30.28,East,90,0.0,0.0,97,-99.99,,,-99.99,WeatherSnoop3.0,2013-03-10 03:52:00,
2013-03-09 22:57:00,41.9,41.1,30.28,East,90,0.0,0.0,97,-99.99,,,-99.99,WeatherSnoop3.0,2013-03-10 03:57:00,
2013-03-09 23:02:00,41.7,40.9,30.28,East,90,0.0,0.0,97,-99.99,,,-99.99,WeatherSnoop3.0,2013-03-10 04:02:00,
2013-03-09 23:07:00,41.7,40.9,30.27,East,90,0.0,0.0,97,-99.99,,,-99.99,WeatherSnoop3.0,2013-03-10 04:07:00,
2013-03-09 23:12:00,41.5,40.8,30.28,East,90,0.0,0.0,97,-99.99,,,-99.99,WeatherSnoop3.0,2013-03-10 04:12:00,
2013-03-09 23:17:00,41.2,40.4,30.27,East,90,0.0,0.0,97,-99.99,,,-99.99,WeatherSnoop3.0,2013-03-10 04:17:00,
2013-03-09 23:22:00,41.0,40.2,30.27,East,90,0.0,0.0,97,-99.99,,,-99.99,WeatherSnoop3.0,2013-03-10 04:22:00,
2013-03-09 23:27:00,40.6,40.1,30.27,East,90,0.0,0.0,98,-99.99,,,-99.99,WeatherSnoop3.0,2013-03-10 04:27:00,
2013-03-09 23:32:00,41.2,40.4,30.27,East,90,0.0,0.0,97,-99.99,,,-99.99,WeatherSnoop3.0,2013-03-10 04:32:00,
2013-03-09 23:37:00,40.6,40.1,30.27,East,90,0.0,0.0,98,-99.99,,,-99.99,WeatherSnoop3.0,2013-03-10 04:37:00,
2013-03-09 23:42:00,40.1,39.6,30.27,East,90,0.0,0.0,98,-99.99,,,-99.99,WeatherSnoop3.0,2013-03-10 04:42:00,
2013-03-09 23:47:00,40.1,39.6,30.26,East,90,0.0,0.0,98,-99.99,,,-99.99,WeatherSnoop3.0,2013-03-10 04:47:00,
2013-03-09 23:52:00,40.5,39.9,30.26,East,90,0.0,0.0,98,-99.99,,,-99.99,WeatherSnoop3.0,2013-03-10 04:52:00,
2013-03-09 23:57:00,40.6,40.1,30.27,East,90,0.0,0.0,98,-99.99,,,-99.99,WeatherSnoop3.0,2013-03-10 04:57:00,